N4TRN Weather Reports


time (UTC)temp
F
wind
direction
speed
knots
gust
knots
rain 1hr
in
rain 24hr
in
rain mn
in
humidity
%
barometer
mb
20260505162502 80 26 1.7 4.3 0.00 0.00 0.00 50 1013.0
20260505162003 79 64 5.2 7.0 0.00 0.00 0.00 54 1013.2
20260505161503 80 35 5.2 7.8 0.00 0.00 0.00 53 1013.4
20260505161003 80 169 2.6 6.1 0.00 0.00 0.00 53 1013.0
20260505153004 77 90 2.6 7.8 0.00 0.00 0.00 57 1013.5
20260505152504 77 46 4.3 7.8 0.00 0.00 0.00 55 1013.3
20260505152003 77 51 5.2 7.8 0.00 0.00 0.00 56 1013.4
20260505151503 77 40 4.3 7.8 0.00 0.00 0.00 60 1013.6
20260505151003 78 67 3.5 7.0 0.00 0.00 0.00 58 1013.3
20260505140504 75 48 5.2 11.3 0.00 0.00 0.00 71 1012.9
20260505124504 73 46 2.6 7.8 0.00 0.00 0.00 79 1013.1
20260505124002 73 64 1.7 6.1 0.00 0.00 0.00 80 1013.2
20260505123503 72 78 2.6 5.2 0.00 0.00 0.00 81 1013.2
20260505123003 72 78 2.6 5.2 0.00 0.00 0.00 82 1013.2
20260505122503 71 56 2.6 5.2 0.00 0.00 0.00 83 1013.1
20260505122002 71 44 1.7 4.3 0.00 0.00 0.00 84 1013.2
20260505121503 70 62 2.6 4.3 0.00 0.00 0.00 86 1013.0
20260505121003 69 50 2.6 5.2 0.00 0.00 0.00 87 1013.0
20260505120004 68 56 1.7 2.6 0.00 0.00 0.00 90 1013.1
20260505115503 68 54 1.7 2.6 0.00 0.00 0.00 92 1013.1
20260505115003 67 40 1.7 1.7 0.00 0.00 0.00 94 1013.2
20260505114503 66 58 1.7 2.6 0.00 0.00 0.00 95 1013.1
20260505114003 66 44 1.7 2.6 0.00 0.00 0.00 96 1013.0
20260505113503 65 53 1.7 1.7 0.00 0.00 0.00 97 1013.0
20260505113004 64 50 0.0 1.7 0.00 0.00 0.00 97 1012.8
20260505112503 63 49 1.7 1.7 0.00 0.00 0.00 98 1012.8
20260505111504 62 62 0.9 1.7 0.00 0.00 0.00 98 1012.6
20260505111003 61 67 0.9 1.7 0.00 0.00 0.00 98 1012.5
20260505110503 61 70 0.0 0.9 0.00 0.00 0.00 98 1012.6
20260505102004 61 332 0.0 0.0 0.00 0.00 0.00 97 1012.5
20260505101504 61 332 0.0 0.0 0.00 0.00 0.00 97 1012.5
20260505101004 61 332 0.0 0.0 0.00 0.00 0.00 97 1012.5
20260505100504 61 329 0.0 0.0 0.00 0.00 0.00 97 1012.4
20260505100003 61 314 0.0 0.0 0.00 0.00 0.00 97 1012.4
20260505095503 61 314 0.0 0.0 0.00 0.00 0.00 96 1012.3
20260505094503 61 314 0.0 0.9 0.00 0.00 0.00 96 1012.3
20260505094003 61 51 0.0 0.0 0.00 0.00 0.00 96 1012.3
20260505093504 61 51 0.0 0.0 0.00 0.00 0.00 96 1012.2
20260505093003 61 51 0.0 0.0 0.00 0.00 0.00 96 1012.2
20260505092503 61 51 0.0 0.0 0.00 0.00 0.00 96 1012.1
20260505091002 62 51 0.0 0.0 0.00 0.00 0.00 96 1012.0
20260505090503 62 51 0.0 0.0 0.00 0.00 0.00 95 1012.1
20260505090003 62 51 0.0 0.0 0.00 0.00 0.00 95 1012.1
20260505084503 62 51 0.0 0.0 0.00 0.00 0.00 95 1012.0
20260505083504 62 51 0.0 0.0 0.00 0.00 0.00 94 1011.9
20260505083003 62 74 0.0 0.0 0.00 0.00 0.00 94 1012.0
20260505082503 62 74 0.0 0.0 0.00 0.00 0.00 94 1012.0
20260505082003 62 74 0.0 0.9 0.00 0.00 0.00 94 1011.8
20260505081504 62 229 0.0 0.0 0.00 0.00 0.00 94 1011.9
20260505080503 62 229 0.0 0.0 0.00 0.00 0.00 93 1012.0
20260505080002 62 36 0.0 0.0 0.00 0.00 0.00 93 1012.0
20260505075503 63 36 0.0 0.0 0.00 0.00 0.00 92 1012.0
20260505075003 63 36 0.0 0.9 0.00 0.00 0.00 92 1012.0
20260505074502 63 250 0.0 0.0 0.00 0.00 0.00 92 1012.1
20260505074004 63 250 0.0 1.7 0.00 0.00 0.00 92 1012.3
20260505073503 63 172 0.0 0.0 0.00 0.00 0.00 91 1012.3
20260505073003 63 172 0.0 0.0 0.00 0.00 0.00 91 1012.1
20260505072503 63 172 0.0 0.0 0.00 0.00 0.00 90 1012.0
20260505072003 63 172 0.0 0.9 0.00 0.00 0.00 90 1012.0
20260505071503 64 53 0.0 0.0 0.00 0.00 0.00 90 1012.0
20260505071003 64 61 0.0 0.9 0.00 0.00 0.00 90 1012.2
20260505070002 64 73 0.0 0.9 0.00 0.00 0.00 89 1012.3
20260505065503 64 249 0.0 0.9 0.00 0.00 0.00 89 1012.4
20260505064504 64 89 0.0 0.9 0.00 0.00 0.00 89 1012.4
20260505064002 65 69 0.0 0.9 0.00 0.00 0.00 88 1012.5
20260505063503 65 20 0.9 0.9 0.00 0.00 0.00 88 1012.5
20260505063003 65 0 0.0 0.9 0.00 0.00 0.00 87 1012.5
20260505062503 65 57 0.0 0.0 0.00 0.00 0.00 86 1012.5
20260505062003 65 49 0.0 0.0 0.00 0.00 0.00 86 1012.5
20260505061503 66 52 0.0 0.0 0.00 0.00 0.00 85 1012.5
20260505061003 66 52 0.0 0.9 0.00 0.00 0.00 85 1012.5
20260505060504 66 129 0.0 0.9 0.00 0.00 0.00 84 1012.7
20260505055003 66 86 1.7 1.7 0.00 0.00 0.00 84 1012.7
20260505054502 66 60 0.9 1.7 0.00 0.00 0.00 84 1012.8
20260505054003 66 56 0.0 0.9 0.00 0.00 0.00 83 1012.9
20260505053504 67 61 0.9 1.7 0.00 0.00 0.00 83 1013.0
20260505053003 67 89 0.9 1.7 0.00 0.00 0.00 83 1013.0
20260505052503 67 79 0.9 0.9 0.00 0.00 0.00 83 1013.1
20260505052003 67 60 0.0 0.9 0.00 0.00 0.00 82 1013.3
20260505051503 67 57 0.9 1.7 0.00 0.00 0.00 82 1013.3
20260505051003 67 67 0.9 1.7 0.00 0.00 0.00 82 1013.3
20260505041503 67 57 1.7 1.7 0.00 0.00 0.00 82 1013.4
20260505041003 67 65 1.7 1.7 0.00 0.00 0.00 82 1013.4
20260505040503 67 70 0.9 1.7 0.00 0.00 0.00 82 1013.5
20260505035503 67 59 1.7 1.7 0.00 0.00 0.00 82 1013.6
20260505035003 67 74 1.7 1.7 0.00 0.00 0.00 82 1013.6
20260505034504 67 55 1.7 2.6 0.00 0.00 0.00 82 1013.7
20260505034003 67 76 0.9 1.7 0.00 0.00 0.00 82 1013.8
20260505033003 67 81 1.7 1.7 0.00 0.00 0.00 82 1013.9
20260505032503 67 70 0.9 1.7 0.00 0.00 0.00 82 1013.9
20260505032003 67 62 1.7 2.6 0.00 0.00 0.00 82 1013.9
20260505031503 67 70 1.7 2.6 0.00 0.00 0.00 82 1013.9
20260505031003 67 56 1.7 2.6 0.00 0.00 0.00 82 1013.8
20260505030503 67 36 1.7 1.7 0.00 0.00 0.00 82 1013.9
20260505030004 67 56 1.7 2.6 0.00 0.00 0.00 81 1013.9
20260505025003 67 31 1.7 1.7 0.00 0.00 0.00 80 1014.0
20260505024503 67 64 0.9 2.6 0.00 0.00 0.00 80 1014.0
20260505024003 67 65 1.7 1.7 0.00 0.00 0.00 80 1014.0
20260505023502 68 48 0.9 1.7 0.00 0.00 0.00 80 1014.0
20260505023002 68 51 0.9 1.7 0.00 0.00 0.00 80 1014.0
20260505022503 68 60 0.9 1.7 0.00 0.00 0.00 78 1014.0
20260505022003 68 79 0.0 1.7 0.00 0.00 0.00 78 1013.9
20260505021503 68 70 0.9 1.7 0.00 0.00 0.00 78 1013.9
20260505021003 68 60 1.7 1.7 0.00 0.00 0.00 78 1013.7
20260505020503 68 53 0.9 1.7 0.00 0.00 0.00 78 1013.7
20260505020004 68 73 0.9 1.7 0.00 0.00 0.00 77 1013.6
20260505015503 68 81 0.9 1.7 0.00 0.00 0.00 77 1013.6
20260505015003 68 68 0.9 1.7 0.00 0.00 0.00 77 1013.5
20260505014504 68 67 0.9 2.6 0.00 0.00 0.00 77 1013.5
20260505014002 69 59 1.7 2.6 0.00 0.00 0.00 76 1013.5
20260505013504 69 65 0.9 1.7 0.00 0.00 0.00 76 1013.5
20260505013003 69 74 1.7 1.7 0.00 0.00 0.00 76 1013.5
20260505012503 69 63 0.9 1.7 0.00 0.00 0.00 75 1013.5
20260505012003 69 57 0.9 1.7 0.00 0.00 0.00 75 1013.4
20260505011504 69 69 1.7 1.7 0.00 0.00 0.00 74 1013.3
20260505011003 69 65 1.7 2.6 0.00 0.00 0.00 74 1013.4
20260505010003 70 64 1.7 2.6 0.00 0.00 0.00 72 1013.5
20260505005503 70 62 0.9 1.7 0.00 0.00 0.00 72 1013.4
20260505005004 70 79 1.7 2.6 0.00 0.00 0.00 72 1013.3
20260505004502 71 70 2.6 2.6 0.00 0.00 0.00 71 1013.2
20260505004003 71 62 2.6 4.3 0.00 0.00 0.00 70 1013.1
20260505003503 71 68 1.7 5.2 0.00 0.00 0.00 70 1013.0
20260505003003 71 57 2.6 4.3 0.00 0.00 0.00 69 1013.0
20260505001503 72 65 3.5 5.2 0.00 0.00 0.00 68 1012.9
20260505001003 72 65 2.6 7.0 0.00 0.00 0.00 67 1012.9
20260505000503 72 75 2.6 7.0 0.00 0.00 0.00 67 1012.9
20260505000003 72 72 2.6 4.3 0.00 0.00 0.00 67 1012.9
20260504235503 73 54 2.6 4.3 0.00 0.00 0.00 66 1012.7
20260504235004 73 64 2.6 5.2 0.00 0.00 0.00 66 1012.6
20260504234503 73 50 3.5 7.0 0.00 0.00 0.00 66 1012.5
20260504234003 73 65 2.6 6.1 0.00 0.00 0.00 65 1012.5
20260504233504 73 55 4.3 7.0 0.00 0.00 0.00 64 1012.5
20260504233003 74 75 6.1 7.8 0.00 0.00 0.00 63 1012.5
20260504232502 74 86 2.6 7.0 0.00 0.00 0.00 63 1012.5
20260504231503 74 58 3.5 7.0 0.00 0.00 0.00 62 1012.5
20260504231003 74 72 5.2 8.7 0.00 0.00 0.00 62 1012.4
20260504230503 74 77 4.3 7.0 0.00 0.00 0.00 61 1012.4
20260504230003 75 66 5.2 7.8 0.00 0.00 0.00 61 1012.4
20260504225503 75 55 5.2 7.8 0.00 0.00 0.00 60 1012.3
20260504225003 75 48 2.6 7.8 0.00 0.00 0.00 60 1012.3
20260504224502 75 81 5.2 7.0 0.00 0.00 0.00 60 1012.4
20260504223503 75 72 4.3 7.0 0.00 0.00 0.00 61 1012.4
20260504223003 75 66 6.1 7.0 0.00 0.00 0.00 60 1012.4
20260504222503 75 74 5.2 7.8 0.00 0.00 0.00 60 1012.2
20260504221503 75 62 2.6 7.8 0.00 0.00 0.00 60 1012.4
20260504221003 75 80 4.3 7.8 0.00 0.00 0.00 60 1012.4
20260504220503 76 76 5.2 7.8 0.00 0.00 0.00 59 1012.4
20260504220003 76 69 6.1 8.7 0.00 0.00 0.00 58 1012.4
20260504215503 76 59 4.3 10.4 0.00 0.00 0.00 59 1012.3
20260504215003 76 53 4.3 8.7 0.00 0.00 0.00 59 1012.3
20260504214503 76 75 6.1 8.7 0.00 0.00 0.00 58 1012.3
20260504213503 76 75 4.3 11.3 0.00 0.00 0.00 59 1012.4
20260504213003 75 89 5.2 7.8 0.00 0.00 0.00 59 1012.3
20260504212503 76 63 6.1 7.8 0.00 0.00 0.00 60 1012.3
20260504212003 76 95 5.2 7.8 0.00 0.00 0.00 57 1012.3
20260504211503 76 40 4.3 8.7 0.00 0.00 0.00 58 1012.2
20260504211003 76 52 7.0 10.4 0.00 0.00 0.00 58 1012.3
20260504210503 75 69 4.3 7.8 0.00 0.00 0.00 59 1012.2
20260504210003 76 45 4.3 11.3 0.00 0.00 0.00 60 1012.4
20260504205503 77 60 6.1 12.2 0.00 0.00 0.00 57 1012.3
20260504205003 76 80 5.2 7.8 0.00 0.00 0.00 58 1012.1
20260504204504 76 74 7.0 10.4 0.00 0.00 0.00 58 1012.1
20260504204003 76 83 5.2 8.7 0.00 0.00 0.00 56 1012.1
20260504203503 76 91 5.2 8.7 0.00 0.00 0.00 57 1012.2
20260504203004 75 66 6.1 10.4 0.00 0.00 0.00 57 1012.3
20260504202503 75 71 5.2 8.7 0.00 0.00 0.00 59 1012.5
20260504201503 76 57 8.7 12.2 0.00 0.00 0.00 57 1012.5
20260504201004 77 46 7.0 11.3 0.00 0.00 0.00 56 1012.4
20260504200503 77 55 3.5 12.2 0.00 0.00 0.00 56 1012.4
20260504200003 77 75 4.3 10.4 0.00 0.00 0.00 56 1012.6
20260504195503 77 47 5.2 8.7 0.00 0.00 0.00 56 1012.4
20260504194502 77 63 5.2 7.8 0.00 0.00 0.00 57 1012.7
20260504194003 77 78 4.3 7.8 0.00 0.00 0.00 56 1012.7
20260504193503 76 48 4.3 7.8 0.00 0.00 0.00 58 1012.6
20260504193003 77 78 5.2 11.3 0.00 0.00 0.00 56 1012.7
20260504192504 76 47 4.3 8.7 0.00 0.00 0.00 56 1012.7
20260504192004 76 55 5.2 8.7 0.00 0.00 0.00 58 1013.0
20260504191503 76 61 5.2 10.4 0.00 0.00 0.00 58 1013.1
20260504191003 76 50 7.8 12.2 0.00 0.00 0.00 58 1013.2
20260504190004 76 52 7.8 11.3 0.00 0.00 0.00 58 1013.1
20260504185504 76 57 5.2 8.7 0.00 0.00 0.00 57 1013.3
20260504185003 76 69 5.2 11.3 0.00 0.00 0.00 57 1013.1
20260504184503 76 72 6.1 11.3 0.00 0.00 0.00 56 1013.2
20260504184003 76 69 5.2 12.2 0.00 0.00 0.00 56 1013.3
20260504183503 76 48 5.2 10.4 0.00 0.00 0.00 57 1013.3
20260504183003 76 61 5.2 10.4 0.00 0.00 0.00 56 1013.5
20260504182004 76 60 6.1 11.3 0.00 0.00 0.00 56 1013.6
20260504181503 77 71 5.2 10.4 0.00 0.00 0.00 55 1013.5
20260504181003 76 71 5.2 8.7 0.00 0.00 0.00 56 1013.6
20260504180504 76 67 4.3 10.4 0.00 0.00 0.00 56 1013.6
20260504180003 76 32 6.1 8.7 0.00 0.00 0.00 55 1013.5
20260504175003 76 43 7.0 14.8 0.00 0.00 0.00 56 1013.6
20260504174502 77 66 7.0 13.9 0.00 0.00 0.00 56 1013.6
20260504174002 77 51 5.2 10.4 0.00 0.00 0.00 53 1013.4
20260504173504 77 43 7.0 10.4 0.00 0.00 0.00 53 1013.3
20260504173003 77 60 5.2 7.0 0.00 0.00 0.00 53 1013.5
20260504172503 76 95 4.3 7.8 0.00 0.00 0.00 54 1013.5
20260504172004 76 65 4.3 7.8 0.00 0.00 0.00 56 1013.9
20260504171003 76 47 6.1 11.3 0.00 0.00 0.00 53 1013.8
20260504170503 76 56 6.1 8.7 0.00 0.00 0.00 54 1013.7